This is the latest recevied weather packets stored in our database for station/object W8UFO-13. If no packets are shown the sender has not sent any weather packets the latest 10 day(s).
| Time | Temp. | Humidity | Pressure | Rain* | Wind** | Luminosity | Snow |
|---|---|---|---|---|---|---|---|
| 1778049857 | 21.67° C | 61% | 1011.7 hPa | 0 mm | - | - | - |
| 1778049556 | 21.11° C | 60% | 1011.8 hPa | 0 mm | - | - | - |
| 1778049257 | 21.11° C | 60% | 1011.8 hPa | 0 mm | - | - | - |
| 1778048956 | 21.11° C | 60% | 1011.9 hPa | 0 mm | - | - | - |
| 1778048657 | 21.11° C | 60% | 1011.9 hPa | 0 mm | - | - | - |
| 1778048356 | 20.56° C | 60% | 1012.2 hPa | 0 mm | - | - | - |
| 1778048056 | 20.56° C | 60% | 1012.1 hPa | 0 mm | - | - | - |
| 1778047756 | 20.56° C | 60% | 1012.3 hPa | 0 mm | - | - | - |
| 1778047457 | 20.56° C | 60% | 1012.6 hPa | 0 mm | - | - | - |
| 1778047157 | 20.56° C | 62% | 1012.7 hPa | 0 mm | - | - | - |
| 1778046856 | 20.56° C | 62% | 1012.8 hPa | 0 mm | - | - | - |
| 1778046556 | 20.56° C | 64% | 1012.7 hPa | 0 mm | - | - | - |
| 1778046256 | 21.11° C | 60% | 1012.8 hPa | 0 mm | - | - | - |
| 1778045956 | 21.11° C | 58% | 1012.9 hPa | 0 mm | - | - | - |
| 1778045656 | 21.11° C | 57% | 1012.9 hPa | 0 mm | - | - | - |
| 1778045356 | 21.67° C | 55% | 1012.8 hPa | 0 mm | - | - | - |
| 1778045056 | 21.67° C | 55% | 1012.8 hPa | 0 mm | - | - | - |
| 1778044756 | 21.67° C | 54% | 1012.8 hPa | 0 mm | - | - | - |
| 1778044457 | 21.67° C | 54% | 1012.7 hPa | 0 mm | - | - | - |
| 1778044156 | 21.67° C | 54% | 1013 hPa | 0 mm | - | - | - |
| 1778043856 | 21.67° C | 54% | 1012.9 hPa | 0 mm | - | - | - |
| 1778043556 | 21.67° C | 54% | 1013 hPa | 0 mm | - | - | - |
| 1778043256 | 21.67° C | 54% | 1012.8 hPa | 0 mm | - | - | - |
| 1778042956 | 21.67° C | 53% | 1012.8 hPa | 0 mm | - | - | - |
| 1778042656 | 21.67° C | 54% | 1012.9 hPa | 0 mm | - | - | - |
* Rain latest hour (hover to see other rain measurements)
** Current wind speed in m/s (hover to see current wind gust speed)